Temperature
17 17 17 17 17 17 17 17 16 16 16 17 17 17 17 17 17 16 16 16 16 16 16 16 16 16 15 15 15 15 15 15 14 14 14 14 14 14
17 17 17 17 17 17 16 16 16 16 16 16 16 17 16 16 16 16 16 16 16 16 16 15 15 15 15 15 15 15 15 14 14 14 14 14 14 13
17 17 17 17 17 16 16 16 16 16 16 16 16 16 16 16 16 16 16 16 16 15 15 15 15 15 15 15 14 14 14 14 14 14 14 14 13 13
17 17 17 16 16 16 16 16 16 16 15 15 15 16 16 16 16 15 15 15 15 15 15 15 15 15 14 14 14 14 14 14 14 13 13 13 13 13
17 16 16 16 16 16 16 16 15 15 15 15 15 15 15 15 15 15 15 15 15 15 14 14 14 14 14 14 14 13 13 13 13 13 13 13 13 12
16 16 16 16 16 16 16 15 15 15 15 15 15 15 15 15 15 15 15 15 14 14 14 14 14 14 13 13 13 13 13 13 13 13 13 12 12 12
16 16 16 16 16 15 15 15 15 15 15 15 14 14 14 14 14 14 14 14 14 14 14 14 13 13 13 13 13 13 13 12 12 12 12 12 12 12
16 16 16 15 15 15 15 15 15 14 14 14 14 14 14 14 14 14 13 13 13 13 13 13 13 13 13 13 12 12 12 12 12 12 11 11 11 11
16 15 15 15 15 15 15 14 14 14 14 14 14 14 14 14 13 13 13 13 13 13 12 12 12 12 12 12 12 12 12 11 11 11 11 11 11 10
15 15 15 15 15 14 14 14 14 14 14 13 13 13 13 13 13 13 13 12 12 12 12 12 12 12 12 12 11 11 11 11 11 11 10 10 10 10
15 15 14 14 14 14 14 14 14 13 13 13 13 13 13 13 13 12 12 12 12 12 11 11 11 11 11 11 11 11 11 11 10 10 10 10 10 9
15 14 14 14 14 14 13 13 13 13 13 13 13 13 12 12 12 12 12 12 11 11 11 11 11 10 10 10 10 10 10 10 10 10 10 9 9 9
14 14 14 13 13 13 13 13 13 12 12 12 12 12 12 12 12 12 11 11 11 11 11 10 10 10 10 10 10 10 10 10 10 9 9 9 9 9
14 13 13 13 13 12 12 12 12 12 12 12 12 12 12 11 11 11 11 11 11 10 10 10 10 10 10 10 10 10 9 9 9 9 9 9 8 8
13 13 12 12 12 12 12 12 12 12 11 11 11 11 11 11 11 11 11 10 10 10 10 10 9 9 9 9 9 9 9 9 9 9 9 8 8 8
12 12 12 12 12 12 11 11 11 11 11 11 11 11 11 10 10 10 10 10 10 10 10 9 9 9 9 9 9 9 9 9 9 8 8 8 8 8
12 12 11 11 11 11 11 11 11 10 10 10 10 10 10 10 10 10 9 9 9 9 9 9 9 9 9 9 8 8 8 8 8 8 8 8 8 8
11 11 11 11 11 10 10 10 10 10 10 10 9 9 9 9 9 9 9 9 9 9 9 9 9 8 8 8 8 8 8 8 8 8 8 7 8 8
11 10 10 10 10 10 10 9 9 9 9 9 9 9 9 9 9 9 8 8 8 8 8 8 8 8 8 8 8 8 8 8 8 7 7 7 7 7
10 10 10 9 9 9 9 9 9 9 9 9 9 9 9 8 8 8 8 8 8 8 8 8 8 7 7 7 8 8 8 7 7 7 7 7 7 7
9 9 9 9 9 9 8 8 8 8 8 8 8 8 8 8 8 8 8 8 8 7 7 7 7 7 7 7 7 7 7 7 7 7 7 7 7 7
9 9 8 8 8 8 8 8 8 8 8 8 8 8 8 7 7 7 7 7 7 7 7 7 7 7 7 7 7 7 7 7 7 7 7 7 7 7
8 8 8 8 8 8 8 7 7 7 7 7 7 7 7 7 7 7 7 7 7 7 7 7 7 7 7 7 7 7 7 7 7 7 7 7 7 7
Wind_Speed
5 5 5 4 4 4 4 4 4 4 4 4 3 3 3 3 4 5 6 9 12 14 15 15 15 15 15 15 15 15 15 14 14 13 12 12 13 13
4 4 4 3 3 2 3 3 4 5 4 4 4 3 3 2 3 4 5 6 7 10 12 13 14 13 13 13 13 13 13 13 12 12 12 12 12 12
3 3 4 3 3 3 2 2 3 3 5 4 3 2 2 3 2 3 4 4 5 7 9 11 11 11 11 11 11 11 11 11 11 11 11 11 11 11
3 2 3 3 2 2 2 2 3 3 4 5 3 2 3 3 3 2 2 3 3 5 7 8 9 9 10 10 10 10 10 10 10 10 10 10 11 11
2 1 2 1 2 2 2 2 3 2 2 3 3 2 2 2 1 1 1 1 2 2 4 5 6 7 8 8 9 9 9 9 10 10 10 10 10 10
1 1 1 1 2 2 2 2 2 2 2 2 3 2 2 1 1 1 1 1 1 1 1 2 4 5 7 7 8 8 9 9 10 10 10 10 10 10
1 1 1 1 1 2 1 2 2 1 1 1 2 2 2 1 2 2 2 1 1 1 0 1 1 2 3 5 6 7 8 8 9 9 9 9 10 11
1 1 0 1 2 1 1 0 1 1 2 2 2 3 3 2 2 2 2 1 2 1 1 2 1 2 2 3 6 7 8 8 8 8 9 9 9 10
1 1 1 1 1 1 1 1 2 1 1 2 3 4 3 3 3 2 2 2 3 2 2 2 1 2 2 3 6 7 8 8 8 8 8 9 9 10
1 1 1 1 2 0 0 1 2 2 2 1 3 4 3 2 3 3 3 1 0 0 1 2 1 2 2 2 4 6 7 8 8 9 9 9 10 10
1 1 0 0 2 1 2 1 2 3 3 3 2 0 1 2 3 2 2 1 1 1 0 1 1 1 1 2 3 6 7 7 8 8 9 9 10 10
1 2 2 1 2 2 1 0 1 2 2 3 3 3 2 1 2 2 3 2 1 2 1 1 1 1 1 2 2 3 4 6 7 8 9 9 9 7
0 1 2 2 2 2 1 0 1 2 1 1 2 2 2 1 1 1 2 2 2 2 3 2 2 2 2 1 2 2 4 4 5 6 8 9 9 9
1 1 1 2 2 2 2 1 2 2 1 1 1 1 2 2 2 2 2 2 3 3 4 4 3 3 2 1 2 2 3 4 4 4 5 7 8 10
0 0 1 2 2 2 3 2 2 1 1 1 1 2 2 2 1 1 1 1 1 1 2 3 2 2 3 3 2 2 2 3 4 4 4 5 5 5
1 1 1 2 2 2 3 2 1 0 0 1 2 2 1 1 1 0 1 1 1 2 2 2 3 3 2 2 2 2 2 2 2 4 4 4 6 8
1 1 1 2 2 2 2 2 1 1 1 2 1 1 1 1 1 1 0 0 0 1 2 2 1 2 2 2 2 2 2 2 2 3 3 4 4 6
3 2 1 1 1 1 2 2 2 2 2 2 1 1 1 1 1 1 1 0 1 2 2 2 1 1 2 2 4 3 3 3 2 3 3 4 5 5
3 2 1 1 0 1 1 1 2 2 1 1 2 2 1 1 1 1 1 1 2 2 2 1 1 1 1 3 4 4 4 3 2 2 3 4 5 6
1 1 1 1 0 0 1 1 1 2 2 2 2 2 2 1 1 2 2 2 2 2 2 1 1 2 3 4 3 3 6 4 3 3 3 3 4 5
1 1 1 1 0 0 0 1 1 1 2 2 2 2 2 2 2 2 2 2 2 2 2 3 5 5 2 0 2 3 4 6 6 4 3 2 2 2
1 1 0 1 0 1 1 1 1 2 2 2 2 3 3 2 2 3 2 2 2 2 3 3 3 1 1 3 4 5 4 4 5 8 9 8 5 4
1 1 1 1 1 1 1 1 1 1 2 2 2 3 3 3 3 3 3 2 2 2 3 3 2 2 2 4 4 4 5 4 3 3 5 9 13 13
Wind_Direction
246 245 243 247 238 228 219 206 207 237 252 248 244 243 229 230 230 227 234 232 227 224 225 227 226 228 229 228 228 228 229 229 227 226 228 229 230 228
245 244 252 255 257 250 238 228 211 212 237 239 235 242 228 232 240 226 230 233 228 229 228 226 227 227 227 227 228 227 226 223 220 220 221 224 226 225
251 244 251 244 250 252 240 237 231 211 235 257 239 246 225 231 246 241 232 217 222 226 228 225 222 220 219 220 222 221 220 217 216 216 218 218 216 215
252 244 256 257 246 248 241 248 243 222 220 250 254 240 234 228 229 227 226 214 209 216 221 220 218 215 215 217 217 216 215 212 211 210 211 212 212 211
245 243 269 259 261 255 245 256 262 259 230 233 249 236 238 231 221 233 221 225 218 224 217 221 220 214 213 213 212 212 210 208 208 208 209 209 206 204
255 219 235 230 250 262 258 255 254 252 240 242 250 245 237 232 180 203 265 290 270 258 216 223 226 224 224 218 212 208 206 206 207 206 205 205 201 197
284 249 234 239 251 252 250 250 233 227 232 243 256 254 242 227 214 200 221 251 277 205 203 248 225 225 230 220 212 209 204 203 203 203 203 201 200 197
270 289 289 24 356 324 296 113 148 203 221 232 244 248 246 234 208 192 190 201 251 219 191 251 220 243 233 214 208 205 205 203 201 201 202 199 198 197
272 274 319 344 344 335 329 5 7 355 246 224 240 247 238 223 191 193 204 221 233 213 181 241 237 243 239 222 209 205 204 203 202 204 204 200 199 199
274 229 222 315 330 322 143 10 343 336 321 282 246 249 240 218 194 199 200 215 301 277 161 210 229 246 249 231 223 212 209 208 206 205 204 205 203 203
350 16 14 279 335 42 90 28 340 330 349 15 20 52 145 141 139 120 112 105 293 263 169 171 216 254 244 248 232 219 215 216 214 210 211 211 210 208
22 18 14 5 2 49 96 110 318 311 342 5 19 25 32 92 134 161 175 178 206 240 218 169 176 146 253 255 232 217 217 224 220 219 218 217 212 206
135 341 344 360 18 32 63 38 284 315 359 28 20 6 3 355 272 219 195 185 203 232 206 173 183 185 201 242 257 228 213 220 219 224 223 218 214 206
175 262 311 333 3 14 18 3 10 31 58 53 31 349 321 304 286 254 243 230 224 229 209 184 188 190 186 209 251 250 231 220 210 215 218 219 220 219
104 342 313 310 325 337 338 347 16 43 60 36 293 276 276 278 296 333 334 350 341 278 208 199 190 186 186 204 218 221 236 240 214 214 212 212 214 210
11 336 328 327 339 336 344 352 355 317 244 259 277 285 315 338 328 334 327 331 341 320 302 250 212 183 191 207 205 224 211 218 223 220 220 226 221 216
61 35 33 31 25 13 3 347 342 346 323 309 305 310 314 317 306 307 298 123 232 289 307 313 274 206 192 186 217 227 217 232 225 206 212 237 239 225
97 78 57 50 34 5 357 347 343 330 314 312 312 302 290 281 290 306 304 232 249 264 268 277 315 358 345 291 218 216 228 234 234 210 202 225 243 236
99 101 103 92 14 356 352 340 333 328 339 347 324 304 291 274 263 266 267 266 269 269 269 257 225 189 237 277 281 222 211 230 223 223 217 220 238 238
119 135 141 150 172 311 333 335 339 352 353 345 339 336 327 301 282 274 264 256 260 270 286 280 241 224 225 239 255 264 224 208 211 226 233 232 252 259
131 118 128 133 132 357 7 14 15 6 359 357 352 346 342 337 319 300 283 278 271 270 268 268 261 253 245 260 290 286 268 231 219 213 209 214 242 260
121 118 102 83 67 29 36 54 48 25 12 8 351 347 343 339 319 310 303 289 269 263 267 276 290 283 224 231 253 264 272 275 258 241 224 209 194 210
153 140 138 116 106 84 66 67 59 13 357 351 344 335 333 326 318 311 304 301 295 289 292 300 308 290 255 240 246 257 263 265 266 268 262 247 235 238
Height
1540 1539 1539 1539 1539 1538 1538 1537 1537 1535 1534 1534 1535 1535 1535 1535 1534 1534 1534 1534 1535 1535 1535 1535 1535 1536 1536 1536 1537 1537 1537 1538 1539 1539 1540 1540 1540 1541
1536 1535 1535 1534 1534 1534 1533 1533 1533 1532 1530 1530 1530 1531 1530 1530 1530 1530 1530 1530 1530 1530 1530 1530 1530 1530 1530 1531 1531 1532 1532 1533 1533 1534 1535 1535 1535 1536
1532 1531 1530 1530 1530 1529 1529 1528 1528 1528 1527 1526 1526 1527 1526 1526 1526 1526 1526 1525 1525 1525 1526 1526 1525 1525 1525 1526 1526 1526 1527 1528 1528 1529 1529 1530 1530 1531
1528 1528 1527 1526 1525 1525 1525 1524 1524 1524 1524 1522 1522 1523 1522 1522 1522 1522 1521 1521 1521 1521 1521 1521 1521 1520 1520 1521 1521 1522 1522 1523 1523 1524 1524 1525 1525 1526
1526 1525 1524 1523 1522 1521 1521 1520 1520 1520 1520 1519 1518 1519 1518 1518 1518 1517 1517 1517 1517 1517 1517 1517 1516 1516 1516 1516 1517 1517 1517 1518 1519 1519 1519 1520 1520 1521
1524 1523 1521 1520 1519 1518 1517 1517 1516 1516 1516 1515 1515 1515 1514 1514 1514 1513 1513 1513 1513 1513 1513 1512 1512 1512 1512 1512 1512 1512 1513 1513 1514 1514 1515 1515 1516 1516
1521 1520 1519 1518 1517 1516 1515 1514 1513 1513 1512 1511 1511 1511 1510 1510 1509 1509 1509 1509 1509 1509 1509 1509 1508 1508 1508 1508 1508 1509 1509 1509 1510 1510 1510 1511 1511 1512
1519 1518 1517 1516 1514 1513 1512 1511 1510 1510 1509 1509 1508 1508 1507 1507 1506 1506 1505 1505 1505 1506 1505 1505 1505 1505 1505 1505 1505 1505 1505 1506 1506 1506 1506 1507 1507 1508
1517 1516 1514 1513 1512 1511 1510 1509 1508 1507 1507 1507 1505 1504 1504 1503 1503 1502 1502 1502 1502 1502 1502 1501 1502 1502 1502 1501 1502 1502 1502 1502 1502 1502 1503 1503 1504 1504
1515 1514 1512 1511 1510 1508 1507 1506 1505 1505 1504 1503 1502 1501 1501 1500 1500 1500 1499 1499 1499 1499 1499 1499 1498 1499 1499 1499 1499 1498 1498 1499 1499 1499 1499 1499 1500 1500
1512 1511 1510 1509 1508 1506 1505 1504 1503 1502 1502 1501 1500 1499 1498 1497 1497 1497 1497 1496 1495 1496 1496 1496 1495 1495 1495 1495 1495 1495 1495 1495 1495 1495 1495 1496 1496 1497
1510 1509 1508 1507 1506 1504 1503 1502 1501 1500 1500 1498 1498 1497 1496 1495 1495 1495 1494 1494 1493 1493 1493 1493 1493 1492 1492 1492 1492 1492 1492 1491 1492 1492 1492 1492 1493 1493
1508 1507 1506 1505 1503 1502 1501 1500 1499 1499 1497 1496 1495 1494 1494 1493 1493 1493 1492 1492 1492 1491 1491 1490 1490 1490 1490 1489 1488 1489 1488 1488 1488 1488 1489 1489 1489 1490
1505 1504 1504 1503 1502 1501 1500 1499 1498 1497 1495 1494 1493 1492 1492 1491 1491 1490 1490 1490 1489 1489 1488 1488 1487 1487 1486 1486 1485 1485 1485 1485 1484 1484 1485 1485 1486 1486
1503 1502 1502 1501 1500 1499 1498 1497 1496 1495 1494 1493 1491 1491 1490 1489 1489 1488 1487 1487 1486 1486 1485 1485 1485 1484 1484 1483 1483 1482 1482 1481 1481 1481 1481 1482 1482 1483
1501 1500 1500 1499 1498 1497 1496 1495 1494 1493 1492 1491 1490 1490 1489 1487 1486 1486 1485 1484 1484 1483 1483 1482 1482 1481 1480 1480 1480 1479 1479 1478 1478 1478 1478 1479 1479 1479
1499 1498 1497 1497 1496 1495 1494 1493 1492 1491 1491 1490 1489 1488 1487 1485 1484 1483 1483 1482 1481 1480 1480 1479 1479 1478 1478 1477 1477 1476 1476 1476 1476 1476 1475 1475 1475 1476
1497 1496 1495 1495 1494 1493 1493 1492 1491 1490 1489 1488 1487 1486 1485 1484 1483 1482 1481 1480 1479 1478 1477 1477 1476 1475 1475 1475 1475 1474 1474 1473 1473 1473 1473 1472 1472 1473
1494 1493 1493 1493 1493 1492 1491 1490 1489 1489 1488 1487 1485 1484 1483 1482 1481 1480 1479 1478 1477 1476 1476 1475 1474 1473 1472 1472 1472 1472 1471 1471 1470 1470 1470 1469 1469 1470
1492 1492 1492 1492 1491 1491 1490 1489 1488 1487 1486 1485 1484 1483 1481 1480 1479 1478 1477 1476 1475 1474 1473 1473 1472 1471 1471 1470 1469 1469 1469 1468 1468 1467 1467 1467 1467 1467
1490 1490 1490 1490 1490 1489 1488 1487 1486 1486 1485 1483 1482 1481 1479 1478 1477 1476 1475 1474 1473 1472 1470 1470 1470 1470 1469 1468 1467 1466 1466 1466 1465 1464 1463 1463 1463 1463
1489 1489 1489 1489 1488 1488 1487 1486 1485 1484 1483 1481 1480 1479 1478 1476 1475 1474 1472 1471 1470 1469 1468 1468 1467 1466 1466 1465 1463 1463 1462 1462 1462 1461 1461 1461 1460 1460
1488 1487 1487 1487 1486 1486 1485 1484 1483 1482 1481 1479 1478 1477 1475 1474 1473 1471 1470 1469 1468 1467 1466 1465 1464 1463 1462 1461 1460 1460 1459 1458 1458 1458 1458 1457 1457 1457